Precipitable_Water
1.58 1.59 1.61 1.62 1.59 1.54 1.48 1.46 1.46 1.45 1.37 1.42 1.53 1.52 1.46 1.26 1.17 1.33 1.46 1.49 1.49 1.43 1.28 1.07 1.01 0.96 0.86 0.88 0.86 0.85 0.84 0.90 1.00
1.38 1.39 1.41 1.43 1.44 1.45 1.43 1.43 1.42 1.40 1.40 1.37 1.45 1.51 1.57 1.56 1.36 1.24 1.34 1.40 1.38 1.34 1.28 1.12 0.96 0.88 0.80 0.78 0.80 0.84 0.85 0.84 0.95
0.98 1.14 1.26 1.26 1.28 1.30 1.31 1.32 1.32 1.30 1.30 1.33 1.36 1.41 1.48 1.51 1.53 1.43 1.40 1.44 1.34 1.32 1.30 1.24 1.19 1.05 0.88 0.82 0.82 0.82 0.82 0.85 0.87
0.58 0.68 0.84 1.01 1.11 1.16 1.22 1.23 1.22 1.21 1.23 1.27 1.29 1.31 1.33 1.36 1.39 1.41 1.43 1.39 1.41 1.37 1.32 1.28 1.29 1.26 1.16 1.03 0.92 0.86 0.83 0.82 0.84
0.49 0.55 0.60 0.64 0.67 0.73 0.89 1.05 1.16 1.21 1.21 1.24 1.27 1.28 1.29 1.30 1.31 1.34 1.36 1.40 1.39 1.48 1.37 1.33 1.32 1.35 1.33 1.24 1.16 1.03 0.93 0.87 0.84
0.46 0.45 0.44 0.43 0.46 0.48 0.53 0.61 0.74 0.90 1.02 1.11 1.16 1.22 1.24 1.23 1.27 1.30 1.30 1.35 1.42 1.41 1.47 1.36 1.32 1.35 1.38 1.35 1.27 1.22 1.14 1.00 0.91
0.58 0.56 0.55 0.55 0.58 0.57 0.58 0.61 0.68 0.70 0.80 0.95 1.04 1.13 1.16 1.22 1.31 1.43 1.44 1.40 1.41 1.47 1.46 1.45 1.38 1.32 1.38 1.41 1.37 1.30 1.22 1.16 1.09
0.57 0.57 0.57 0.58 0.57 0.59 0.59 0.58 0.58 0.60 0.63 0.72 0.81 0.91 1.03 1.15 1.21 1.27 1.30 1.32 1.50 1.53 1.53 1.47 1.46 1.41 1.33 1.36 1.39 1.39 1.31 1.22 1.16
0.59 0.60 0.60 0.60 0.60 0.59 0.60 0.59 0.58 0.58 0.59 0.60 0.60 0.65 0.73 0.91 0.97 0.96 1.07 1.16 1.26 1.34 1.47 1.52 1.49 1.45 1.44 1.36 1.36 1.38 1.40 1.32 1.22
0.55 0.55 0.57 0.58 0.59 0.58 0.55 0.54 0.54 0.53 0.54 0.54 0.55 0.55 0.57 0.61 0.67 0.83 0.86 0.94 1.10 1.18 1.24 1.30 1.43 1.50 1.46 1.45 1.40 1.36 1.37 1.42 1.36
0.51 0.52 0.53 0.56 0.58 0.58 0.59 0.58 0.57 0.56 0.57 0.55 0.56 0.54 0.55 0.54 0.56 0.60 0.66 0.78 0.90 0.96 1.14 1.23 1.29 1.40 1.48 1.49 1.48 1.43 1.39 1.38 1.45
0.52 0.54 0.56 0.59 0.60 0.59 0.60 0.60 0.61 0.60 0.62 0.61 0.61 0.60 0.60 0.61 0.60 0.60 0.62 0.66 0.73 0.89 1.00 1.06 1.16 1.26 1.34 1.44 1.51 1.53 1.50 1.43 1.41
0.54 0.55 0.57 0.61 0.62 0.61 0.60 0.60 0.59 0.60 0.61 0.61 0.63 0.65 0.66 0.66 0.67 0.69 0.67 0.65 0.67 0.73 0.85 0.89 0.99 1.20 1.27 1.33 1.43 1.53 1.57 1.56 1.50
0.55 0.57 0.59 0.61 0.61 0.61 0.61 0.60 0.61 0.56 0.57 0.59 0.61 0.63 0.64 0.68 0.72 0.73 0.74 0.75 0.77 0.76 0.74 0.77 0.85 0.92 1.07 1.25 1.34 1.48 1.57 1.59 1.56
0.55 0.58 0.60 0.62 0.61 0.58 0.59 0.56 0.57 0.56 0.56 0.54 0.55 0.56 0.60 0.65 0.67 0.66 0.72 0.77 0.80 0.82 0.83 0.87 0.91 0.90 0.89 1.00 1.19 1.28 1.46 1.60 1.58
0.47 0.46 0.48 0.50 0.51 0.55 0.53 0.49 0.43 0.43 0.44 0.39 0.36 0.42 0.50 0.55 0.62 0.67 0.73 0.76 0.76 0.76 0.78 0.81 0.87 0.98 1.00 0.97 0.92 1.15 1.24 1.48 1.62
0.38 0.37 0.36 0.37 0.36 0.38 0.35 0.36 0.30 0.32 0.39 0.36 0.38 0.34 0.41 0.52 0.61 0.66 0.75 0.76 0.81 0.80 0.80 0.87 0.89 0.96 0.98 1.06 1.08 1.16 1.29 1.42 1.59
0.27 0.24 0.24 0.24 0.25 0.24 0.24 0.28 0.30 0.29 0.34 0.41 0.42 0.35 0.34 0.44 0.56 0.64 0.74 0.73 0.80 0.83 0.86 0.92 1.03 1.06 0.99 1.05 1.08 1.23 1.32 1.42 1.51
0.25 0.23 0.23 0.23 0.24 0.24 0.25 0.28 0.29 0.34 0.29 0.33 0.41 0.51 0.51 0.41 0.39 0.54 0.65 0.71 0.73 0.77 0.84 0.91 1.01 1.07 1.13 1.14 1.08 1.14 1.22 1.33 1.49
0.26 0.24 0.23 0.23 0.24 0.25 0.26 0.27 0.27 0.29 0.29 0.31 0.32 0.36 0.44 0.52 0.43 0.37 0.47 0.63 0.72 0.73 0.78 0.83 0.89 0.95 1.03 1.05 1.10 1.12 1.13 1.22 1.33
Wind_Speed
18 19 19 19 19 19 19 19 19 19 19 19 19 18 18 17 17 17 16 16 16 17 17 18 18 17 17 17 17 16 16 16 15
20 20 21 21 22 22 22 22 22 22 22 22 22 22 21 21 20 20 20 20 19 19 19 19 18 19 19 19 18 18 18 18 17
22 22 22 22 23 23 24 24 24 24 24 23 23 24 24 24 24 24 24 23 23 22 22 21 20 20 19 20 20 20 20 20 20
23 23 23 24 24 25 25 26 26 26 26 26 26 26 26 26 26 26 26 27 27 26 25 24 23 22 21 21 21 21 22 22 22
23 24 23 25 26 26 27 27 27 28 28 29 29 29 30 30 30 30 29 29 28 28 28 28 27 26 25 24 23 23 23 23 23
24 25 26 26 27 27 28 29 29 29 30 31 31 31 30 31 31 32 32 32 32 32 31 31 31 30 29 28 27 26 25 24 24
24 25 25 26 27 27 28 28 29 30 30 30 30 30 31 31 31 31 32 33 34 35 35 34 34 33 33 32 31 29 28 27 26
24 25 26 27 27 27 28 29 29 29 30 31 31 32 33 33 33 33 34 35 35 36 36 37 37 37 36 36 35 34 32 31 29
25 25 26 26 27 27 28 28 29 29 30 31 31 32 33 33 35 37 38 38 39 40 40 40 39 39 39 39 39 38 36 35 33
26 26 27 27 27 27 27 27 27 27 28 29 30 30 31 32 33 33 36 38 38 39 41 41 42 42 42 42 41 41 40 39 37
25 25 25 25 25 25 25 25 25 26 27 27 28 29 30 32 33 35 36 37 38 39 39 41 42 43 44 45 45 44 43 42 41
23 23 22 23 24 23 23 24 24 25 25 26 27 28 29 31 32 34 35 36 37 39 40 42 44 45 45 45 46 47 46 45 44
22 21 21 22 22 22 22 23 24 25 26 27 27 28 29 31 33 34 35 37 39 40 41 44 46 46 47 47 46 48 48 48 46
20 20 20 21 20 20 21 21 22 24 24 25 26 27 28 28 29 30 32 35 37 39 41 44 46 47 49 49 48 48 49 49 49
19 19 19 20 20 20 21 22 23 24 25 26 25 27 25 24 25 27 27 28 32 35 38 42 44 45 47 49 50 49 48 50 51
18 19 19 20 20 21 21 22 23 23 25 25 26 24 24 24 25 26 27 28 31 34 37 40 42 44 44 46 48 50 50 49 50
18 19 19 20 20 21 22 22 23 23 25 24 25 23 22 23 23 26 25 28 30 31 30 32 33 35 37 38 39 42 48 49 48
19 20 20 21 21 22 22 23 23 23 25 25 23 24 23 26 22 24 24 27 27 28 26 24 22 22 27 31 34 35 36 44 47
20 20 20 21 21 22 23 23 23 23 24 24 24 25 27 25 25 24 25 26 25 25 23 21 19 19 14 16 23 29 28 36 28
20 21 21 22 22 23 23 23 24 24 24 25 25 26 26 24 26 25 26 26 24 23 23 21 19 18 16 15 17 19 25 20 28
Wind_Direction
295 295 293 291 291 291 290 289 289 288 287 286 282 280 280 278 276 273 276 271 272 269 271 272 270 267 266 264 262 259 257 255 253
296 294 292 290 289 289 288 287 287 286 285 284 280 278 277 276 275 272 273 271 271 269 271 272 270 268 266 264 262 260 258 255 253
294 293 292 290 289 288 287 286 285 285 284 283 280 278 276 275 274 273 272 272 270 268 269 269 269 269 266 264 262 260 258 256 255
294 293 292 290 289 289 287 286 285 284 282 281 280 278 276 275 274 273 272 271 269 267 267 267 267 267 266 265 263 261 259 257 256
295 294 293 291 291 289 288 286 285 284 282 281 279 278 276 275 273 273 271 271 269 267 266 265 265 265 264 264 263 261 259 258 256
297 295 294 294 292 291 289 287 285 284 283 281 280 278 277 275 274 273 271 270 268 267 266 265 265 263 263 262 261 260 260 258 256
299 298 297 295 293 292 291 289 287 287 285 283 281 280 278 276 275 274 271 270 269 267 266 265 265 263 262 261 260 259 258 257 256
302 301 299 299 297 295 294 292 290 288 287 284 283 281 278 276 275 275 274 271 270 269 266 265 264 263 261 260 259 258 257 256 255
303 302 302 300 299 297 296 294 293 291 289 287 285 282 280 279 276 276 275 273 270 269 268 266 264 263 261 259 258 256 255 254 254
304 302 301 300 300 298 296 295 294 293 293 291 288 285 283 280 280 279 277 276 273 270 268 266 265 263 261 259 257 256 254 253 252
305 304 303 303 303 302 300 298 297 297 296 294 292 289 286 284 282 280 279 278 274 272 270 268 266 265 262 259 257 255 253 252 251
309 308 306 306 306 305 304 303 302 301 300 299 297 294 291 289 286 284 282 280 278 275 272 270 268 265 263 261 257 254 252 251 250
312 310 310 311 309 308 307 306 306 304 303 302 300 298 296 293 290 287 284 282 280 278 276 272 270 266 263 261 258 255 252 250 249
315 314 314 315 315 314 313 312 312 311 309 307 306 305 302 301 299 294 289 286 284 282 279 275 271 268 264 261 259 256 252 249 247
317 317 317 317 316 316 315 314 314 312 312 310 309 309 307 306 306 304 300 296 294 291 287 280 274 269 265 260 258 256 253 250 247
317 317 317 317 317 316 316 315 316 315 316 312 312 312 311 308 313 309 305 304 303 300 295 288 279 271 266 260 258 255 253 251 248
315 316 316 316 316 316 316 316 316 315 319 315 312 311 311 314 312 315 311 311 312 310 309 304 290 275 264 260 260 258 252 250 249
314 315 315 314 315 315 316 316 316 314 316 318 316 313 309 312 310 314 315 317 317 320 312 314 320 300 272 261 258 259 257 253 250
312 313 314 314 315 316 315 315 315 314 313 315 315 313 311 311 309 311 314 317 319 323 324 318 317 319 301 278 267 257 262 252 252
308 310 311 312 312 313 313 313 314 313 312 313 311 311 311 310 308 308 311 314 316 320 322 321 314 315 314 297 284 270 256 272 248